TimeMDT,TemperatureF,Dew PointF,Humidity,Sea Level PressureIn,VisibilityMPH,Wind Direction,Wind SpeedMPH,Gust SpeedMPH,PrecipitationIn,Events,Conditions,WindDirDegrees,DateUTC
12:56 AM,66.9,53.1,61,29.70,10.0,South,10.4,-,N/A,,Scattered Clouds,190,2013-07-04 06:56:00
1:56 AM,64.9,52.0,63,29.69,10.0,South,11.5,-,N/A,,Clear,180,2013-07-04 07:56:00
2:56 AM,62.1,53.1,72,29.68,10.0,SSW,10.4,-,N/A,,Clear,210,2013-07-04 08:56:00
3:56 AM,62.1,54.0,75,29.68,10.0,WSW,6.9,-,N/A,,Clear,250,2013-07-04 09:56:00
4:56 AM,64.0,57.0,78,29.69,10.0,WNW,10.4,-,N/A,,Clear,300,2013-07-04 10:56:00
5:56 AM,64.0,61.0,90,29.73,10.0,NW,11.5,-,N/A,,Clear,320,2013-07-04 11:56:00
6:35 AM,68.0,64.4,88,29.79,7.0,NW,11.5,-,N/A,,Scattered Clouds,320,2013-07-04 12:35:00
6:51 AM,69.8,64.4,83,29.80,8.0,NW,12.7,-,N/A,,Mostly Cloudy,310,2013-07-04 12:51:00
6:56 AM,69.1,64.9,87,29.75,8.0,NW,12.7,-,N/A,,Mostly Cloudy,310,2013-07-04 12:56:00
7:44 AM,71.6,64.4,78,29.82,10.0,NW,12.7,-,N/A,,Mostly Cloudy,320,2013-07-04 13:44:00
7:56 AM,71.1,64.0,78,29.77,10.0,NNW,13.8,-,N/A,,Mostly Cloudy,330,2013-07-04 13:56:00
8:42 AM,71.6,64.4,78,29.83,10.0,NNW,9.2,-,N/A,,Scattered Clouds,340,2013-07-04 14:42:00
8:56 AM,73.9,64.9,73,29.78,10.0,NNW,10.4,-,N/A,,Clear,330,2013-07-04 14:56:00
9:45 AM,77.0,64.4,65,29.84,10.0,NNW,13.8,-,N/A,,Partly Cloudy,330,2013-07-04 15:45:00
9:56 AM,77.0,64.0,64,29.79,10.0,North,12.7,-,N/A,,Clear,350,2013-07-04 15:56:00
10:56 AM,81.0,61.0,50,29.78,10.0,NNW,11.5,19.6,N/A,,Clear,340,2013-07-04 16:56:00
11:09 AM,82.4,57.2,42,29.84,10.0,North,9.2,-,N/A,,Partly Cloudy,360,2013-07-04 17:09:00
11:56 AM,82.9,57.9,42,29.78,10.0,North,12.7,-,N/A,,Clear,10,2013-07-04 17:56:00
12:56 PM,84.9,55.9,37,29.79,10.0,NNW,12.7,17.3,N/A,,Clear,340,2013-07-04 18:56:00
1:56 PM,84.9,55.0,36,29.79,10.0,NNW,8.1,19.6,N/A,,Clear,340,2013-07-04 19:56:00
2:56 PM,84.9,54.0,34,29.79,10.0,NNW,11.5,18.4,N/A,,Clear,340,2013-07-04 20:56:00
3:56 PM,84.9,55.0,36,29.78,10.0,NNW,11.5,-,N/A,,Clear,340,2013-07-04 21:56:00
4:56 PM,84.9,57.0,38,29.78,10.0,NNW,10.4,-,N/A,,Clear,340,2013-07-04 22:56:00
5:56 PM,82.0,57.0,42,29.78,10.0,NNW,9.2,-,N/A,,Clear,340,2013-07-04 23:56:00
6:56 PM,78.1,57.9,50,29.77,10.0,North,6.9,-,N/A,,Clear,350,2013-07-05 00:56:00
7:56 PM,75.0,61.0,62,29.76,10.0,NE,5.8,-,N/A,,Clear,50,2013-07-05 01:56:00
8:56 PM,69.1,57.9,68,29.77,10.0,ENE,5.8,-,N/A,,Clear,60,2013-07-05 02:56:00
9:56 PM,66.0,57.0,73,29.79,10.0,East,5.8,-,N/A,,Clear,80,2013-07-05 03:56:00
10:56 PM,64.0,55.9,75,29.79,10.0,East,4.6,-,N/A,,Clear,100,2013-07-05 04:56:00
11:56 PM,61.0,55.9,83,29.80,10.0,SSE,3.5,-,N/A,,Clear,160,2013-07-05 05:56:00